Regional Weather Roundup
Issued by NWS

Home | Current Version | Previous Version | Text Only | Print | Product List | Glossary On
Versions: 1 2 3 4 5 6 7 8 9 10 11 12 13 14 15 16 17 18 19 20 21 22 23 24 25 26 27 28 29 30 31 32 33 34 35 36 37 38 39 40 41 42 43 44 45 46 47 48 49 50
000
ASUS46 KSTO 201909
RWRCA

NORTHERN AND CENTRAL CA REGIONAL WEATHER ROUNDUP
NATIONAL WEATHER SERVICE SACRAMENTO CA
1100 AM PST FRI JAN 20 2017

NOTE: FAIR INDICATES FEW OR NO CLOUDS BELOW 12,000 FEET WITH NO
SIGNIFICANT WEATHER AND/OR OBSTRUCTIONS TO VISIBILITY.

CAZ001-003-202000-
NORTHWEST AREA

CITY           SKY/WX    TMP DP  RH WIND       PRES   REMARKS
CRESCENT CITY  RAIN      46  43  89 SE17      29.16S FOG
ARCATA         NOT AVBL
SHELTER COVE   NOT AVBL
UKIAH          LGT RAIN  46  44  93 CALM      29.29S FOG
$$

CAZ006-505>513-202000-
BAY AREA

CITY           SKY/WX    TMP DP  RH WIND       PRES   REMARKS
SANTA ROSA     CLOUDY    51  45  79 VRB5      29.31S
SAN RAFAEL     N/A       49  MM  MM MISG
NAPA           PTSUNNY   54  46  74 S12       29.34S
CONCORD        PTSUNNY   52  45  77 S8        29.35F
OAKLAND CITY   N/A       51  MM  MM MISG
OAKLAND        MOSUNNY   54  49  83 S12       29.37S
SAN FRAN CITY  N/A       55  MM  66 MISG
SAN FRAN ARPT  MOSUNNY   56  43  61 W16G22    29.36S
LIVERMORE      PTSUNNY   50  44  80 SW10      29.37R
HAYWARD        PTSUNNY   53  44  71 S12       29.37S
REDWOOD CITY   N/A       MM  MM  MM MISG
MOFFETT ARPT   CLOUDY    51  47  86 SE8       29.39F
SAN JOSE ARPT  LGT RAIN  51  45  79 CALM      29.40R
$$
CAZ034-037-514>518-202000-
CENTRAL COAST

CITY           SKY/WX    TMP DP  RH WIND       PRES   REMARKS
WATSONVILLE    LGT RAIN  54  54 100 SW7       29.41S
SALINAS        PTSUNNY   55  47  74 SW10      29.41S
MONTEREY       PTSUNNY   54  48  80 S13       29.43S
PT PIEDRAS BLS NOT AVBL
SAN LUIS OBISP LGT RAIN  51  47  86 NW15      29.50R FOG
SANTA MARIA    HVY RAIN  49  48  97 W15       29.50R FOG
$$
CAZ015-016-202000-
NORTHERN SACRAMENTO VALLEY

CITY           SKY/WX    TMP DP  RH WIND       PRES   REMARKS
REDDING        RAIN      45  43  93 S13G21    29.24F FOG
RED BLUFF      CLOUDY    48  45  89 SE24G35   29.27S
OROVILLE       LGT RAIN  48  43  82 S20G31    29.34F
$$
CAZ016>018-202000-
SOUTHERN SACRAMENTO VALLEY

CITY           SKY/WX    TMP DP  RH WIND       PRES   REMARKS
BEALE AFB      CLOUDY    48  47  98 SE21G28   29.31F
LINCOLN        CLOUDY    50  41  71 S20G25    29.33F
MARYSVILLE     CLOUDY    49  43  80 S20G29    29.34F
SAC INTL ARPT  CLOUDY    50  45  83 S17G29    29.34F
MATHER AIRPORT PTSUNNY   50  45  81 S21G29    29.35F
DOWNTOWN SAC   N/A       49  MM  MM MISG
SAC EXEC ARPT  CLOUDY    49  45  86 S14G26    29.36S
VACAVILLE      LGT RAIN  50  48  93 S9G20     29.34F
TRAVIS AFB     LGT RAIN  50  46  87 S16       29.32F
$$
CAZ019>021-202000-
SAN JOAQUIN VALLEY

CITY           SKY/WX    TMP DP  RH WIND       PRES   REMARKS
STOCKTON       MOSUNNY   51  49  92 S9        29.37S
MODESTO        PTSUNNY   52  49  89 S10G16    29.38S
MERCED         CLOUDY    50  46  86 SE15      29.40S
LEMOORE        PTSUNNY   50  46  86 SE22      29.42F
FRESNO         CLOUDY    52  44  74 SE26G33   29.43F
HANFORD        PTSUNNY   51  48  89 SE15G21   29.46F
PORTERVILLE    LGT RAIN  51  47  86 SE8       29.49F
BAKERSFIELD    CLOUDY    52  44  74 SE8       29.47F
$$
CAZ011-012-071-202000-
NORTHERN MOUNTAINS

CITY           SKY/WX    TMP DP  RH WIND       PRES   REMARKS
YREKA          PTSUNNY   41  30  65 S14       29.14S
MOUNT SHASTA   LGT SNOW  34  31  88 VRB3      29.17S FOG
ALTURAS        CLOUDY    38  29  70 S21G26    29.14F WCI  28
$$
CAZ011-012-071-202000-
SIERRA NEVADA MTNS

CITY           SKY/WX    TMP DP  RH WIND       PRES   REMARKS
BLUE CANYON    SNOW      30  29  96 S14G23    29.27F WCI  19
TRUCKEE        LGT SNOW  30  27  86 SW10      29.24S WCI  21
TAHOE VLY ARPT SNOW      30  27  88 SE7       29.24F VSB 1/2 WCI  23
MAMMOTH LAKES  LGT SNOW  29  22  74 S18       29.30F WCI  16
$$



USA.gov is the U.S. government's official web portal to all federal, state and local government web resources and services.